Weather History for KCIU - September, 2013

Change the Weather History Date:

Thursday, September 12, 2013

  Actual Average Record
Temperature  
Mean Temperature 55 °F -  
Max Temperature 62 °F 66 °F 84 °F (2005)
Min Temperature 48 °F 45 °F 37 °F (1988)
Degree Days  
Heating Degree Days 10    
Growing Degree Days 5 (Base 50)    
Moisture  
Dew Point 53 °F    
Average Humidity 86    
Maximum Humidity 100    
Minimum Humidity 72    
Precipitation  
Precipitation 0.01 in - - ()
Sea Level Pressure  
Sea Level Pressure 29.94 in    
Wind  
Wind Speed 11 mph (NW)    
Max Wind Speed 24 mph    
Max Gust Speed 31 mph    
Visibility 10 miles    
Events      
Averages and records for this station are not official NWS values.
T = Trace of Precipitation, MM = Missing Value Source: NWS Daily Summary

Daily Weather History Graph

Daily Weather History Graph

Search for Another Location

Airport or City:

Trip Planner

Search our weather history database for the weather conditions in past years. The results will help you decide how hot, cold, wet, or windy it might be!

Date:

Astronomy

Sep. 12, 2013 Rise Set
Actual Time 7:12 AM EDT 7:54 PM EDT
Civil Twilight 6:42 AM EDT 8:25 PM EDT
Nautical Twilight 6:06 AM EDT 9:00 PM EDT
Astronomical Twilight 5:28 AM EDT 9:38 PM EDT
Moon 3:01 PM EDT (9/12) No Moon Set
Length of Visible Light 13h 42m
Length of Day
12h 42m
Waxing Crescent, 50% of the Moon is Illuminated
Sep 12
Waxing Crescent
Sep 12
First Quarter
Sep 19
Full
Sep 26
Last Quarter
Oct 4
New

Hourly Weather History & Observations

Time (EDT) Temp. Dew Point Humidity Pressure Visibility Wind Dir Wind Speed Gust Speed Precip Events Conditions
12:15 AM 62.6 °F 62.6 °F 100% 29.88 in 10.0 mi Calm Calm - 0.01 in   Overcast
12:35 AM 62.6 °F 62.6 °F 100% 29.88 in 9.0 mi West 4.6 mph - 0.01 in   Overcast
12:55 AM 62.6 °F 62.6 °F 100% 29.87 in 10.0 mi West 4.6 mph - 0.01 in   Overcast
1:15 AM 62.6 °F 62.6 °F 100% 29.87 in 10.0 mi West 4.6 mph - N/A   Mostly Cloudy
1:35 AM 62.6 °F 62.6 °F 100% 29.87 in 10.0 mi West 10.4 mph - N/A   Overcast
1:55 AM 62.6 °F 62.6 °F 100% 29.87 in 10.0 mi WNW 10.4 mph - N/A   Overcast
2:15 AM 62.6 °F 62.6 °F 100% 29.87 in 10.0 mi West 11.5 mph - N/A   Overcast
2:35 AM 62.6 °F 62.6 °F 100% 29.87 in 10.0 mi WNW 9.2 mph 16.1 mph N/A   Overcast
2:55 AM 62.6 °F 62.6 °F 100% 29.87 in 10.0 mi West 9.2 mph - N/A   Overcast
3:15 AM 62.6 °F 62.6 °F 100% 29.87 in 10.0 mi West 12.7 mph - N/A   Overcast
3:35 AM 62.6 °F 60.8 °F 94% 29.87 in 10.0 mi WNW 10.4 mph - N/A   Overcast
3:55 AM 60.8 °F 59.0 °F 94% 29.87 in 10.0 mi WNW 13.8 mph - N/A   Overcast
4:15 AM 60.8 °F 60.8 °F 100% 29.87 in 10.0 mi WNW 9.2 mph - N/A   Overcast
4:35 AM 60.8 °F 59.0 °F 94% 29.87 in 10.0 mi WNW 10.4 mph - N/A   Overcast
4:55 AM 60.8 °F 59.0 °F 94% 29.88 in 10.0 mi WNW 10.4 mph 18.4 mph N/A   Overcast
5:15 AM 60.8 °F 59.0 °F 94% 29.87 in 10.0 mi WNW 13.8 mph - N/A   Overcast
5:35 AM 60.8 °F 59.0 °F 94% 29.87 in 10.0 mi WNW 11.5 mph - N/A   Overcast
5:55 AM 60.8 °F 59.0 °F 94% 29.87 in 10.0 mi NW 9.2 mph - N/A   Overcast
6:15 AM 60.8 °F 59.0 °F 94% 29.88 in 10.0 mi NW 11.5 mph - N/A   Overcast
6:35 AM 59.0 °F 59.0 °F 100% 29.88 in 10.0 mi NW 11.5 mph - N/A   Overcast
6:55 AM 59.0 °F 57.2 °F 94% 29.88 in 10.0 mi NW 17.3 mph 21.9 mph N/A   Overcast
7:15 AM 59.0 °F 57.2 °F 94% 29.89 in 10.0 mi WNW 12.7 mph - N/A   Overcast
7:35 AM 57.2 °F 55.4 °F 94% 29.89 in 10.0 mi WNW 11.5 mph - N/A   Overcast
7:55 AM 57.2 °F 57.2 °F 100% 29.90 in 10.0 mi WNW 12.7 mph 16.1 mph N/A   Overcast
8:15 AM 59.0 °F 57.2 °F 94% 29.90 in 10.0 mi WNW 12.7 mph - N/A   Scattered Clouds
8:35 AM 59.0 °F 57.2 °F 94% 29.90 in 10.0 mi WNW 10.4 mph - N/A   Mostly Cloudy
8:55 AM 60.8 °F 55.4 °F 82% 29.89 in 10.0 mi NW 18.4 mph 24.2 mph N/A   Mostly Cloudy
9:15 AM 60.8 °F 53.6 °F 77% 29.90 in 10.0 mi NW 17.3 mph 27.6 mph N/A   Partly Cloudy
9:35 AM 60.8 °F 53.6 °F 77% 29.90 in 10.0 mi WNW 18.4 mph 24.2 mph N/A   Mostly Cloudy
9:55 AM 59.0 °F 53.6 °F 82% 29.91 in 10.0 mi NW 16.1 mph 24.2 mph N/A   Overcast
10:15 AM 59.0 °F 51.8 °F 77% 29.92 in 10.0 mi NW 16.1 mph 27.6 mph N/A   Mostly Cloudy
10:35 AM 59.0 °F 53.6 °F 82% 29.92 in 10.0 mi WNW 16.1 mph 24.2 mph N/A   Mostly Cloudy
10:55 AM 59.0 °F 53.6 °F 82% 29.92 in 10.0 mi WNW 17.3 mph 21.9 mph N/A   Overcast
11:15 AM 57.2 °F 53.6 °F 88% 29.93 in 10.0 mi NW 17.3 mph 23.0 mph N/A   Overcast
11:35 AM 57.2 °F 53.6 °F 88% 29.94 in 10.0 mi WNW 16.1 mph 21.9 mph N/A   Overcast
11:55 AM 57.2 °F 51.8 °F 82% 29.94 in 10.0 mi WNW 20.7 mph 27.6 mph N/A   Overcast
12:15 PM 57.2 °F 51.8 °F 82% 29.95 in 10.0 mi WNW 16.1 mph 23.0 mph N/A   Overcast
12:35 PM 57.2 °F 51.8 °F 82% 29.95 in 10.0 mi WNW 17.3 mph 25.3 mph N/A   Overcast
12:55 PM 57.2 °F 51.8 °F 82% 29.95 in 9.0 mi WNW 19.6 mph 26.5 mph N/A   Overcast
1:15 PM 57.2 °F 51.8 °F 82% 29.95 in 10.0 mi WNW 18.4 mph 26.5 mph N/A   Overcast
1:35 PM 57.2 °F 51.8 °F 82% 29.96 in 9.0 mi NW 18.4 mph 25.3 mph N/A   Overcast
1:55 PM 57.2 °F 51.8 °F 82% 29.96 in 9.0 mi NW 21.9 mph 27.6 mph N/A   Overcast
2:15 PM 55.4 °F 51.8 °F 88% 29.96 in 10.0 mi WNW 12.7 mph 23.0 mph N/A   Overcast
2:35 PM 57.2 °F 51.8 °F 82% 29.96 in 10.0 mi WNW 16.1 mph 25.3 mph N/A   Overcast
2:55 PM 57.2 °F 48.2 °F 72% 29.97 in 10.0 mi NW 21.9 mph 27.6 mph N/A   Overcast
3:15 PM 57.2 °F 48.2 °F 72% 29.97 in 10.0 mi NW 18.4 mph 27.6 mph N/A   Overcast
3:35 PM 57.2 °F 48.2 °F 72% 29.97 in 10.0 mi NW 21.9 mph 26.5 mph N/A   Mostly Cloudy
3:55 PM 57.2 °F 48.2 °F 72% 29.96 in 10.0 mi NW 21.9 mph 31.1 mph N/A   Overcast
4:15 PM 57.2 °F 48.2 °F 72% 29.97 in 10.0 mi NW 18.4 mph 25.3 mph N/A   Overcast
4:35 PM 57.2 °F 48.2 °F 72% 29.97 in 10.0 mi NW 18.4 mph 27.6 mph N/A   Overcast
4:55 PM 57.2 °F 48.2 °F 72% 29.96 in 10.0 mi NW 24.2 mph 27.6 mph N/A   Overcast
5:15 PM 55.4 °F 48.2 °F 77% 29.97 in 10.0 mi NW 16.1 mph 20.7 mph N/A   Mostly Cloudy
5:35 PM 55.4 °F 48.2 °F 77% 29.97 in 10.0 mi NW 20.7 mph 26.5 mph N/A   Mostly Cloudy
5:55 PM 55.4 °F 46.4 °F 72% 29.98 in 10.0 mi NW 17.3 mph 25.3 mph N/A   Clear
6:15 PM 55.4 °F 46.4 °F 72% 29.98 in 10.0 mi NW 16.1 mph 26.5 mph N/A   Clear
6:35 PM 55.4 °F 46.4 °F 72% 29.99 in 10.0 mi NW 17.3 mph 26.5 mph N/A   Scattered Clouds
6:55 PM 53.6 °F 46.4 °F 77% 30.00 in 10.0 mi NW 11.5 mph 21.9 mph N/A   Overcast
7:15 PM 53.6 °F 46.4 °F 77% 30.00 in 10.0 mi NW 16.1 mph 21.9 mph N/A   Overcast
7:35 PM 53.6 °F 46.4 °F 77% 30.00 in 10.0 mi NW 12.7 mph - N/A   Overcast
7:55 PM 53.6 °F 46.4 °F 77% 30.00 in 10.0 mi NW 10.4 mph - N/A   Overcast
8:15 PM 53.6 °F 46.4 °F 77% 30.01 in 10.0 mi NNW 12.7 mph - N/A   Overcast
8:35 PM 51.8 °F 46.4 °F 82% 30.02 in 10.0 mi North 10.4 mph - N/A   Overcast
8:55 PM 51.8 °F 46.4 °F 82% 30.03 in 10.0 mi North 10.4 mph 17.3 mph N/A   Overcast
9:15 PM 51.8 °F 46.4 °F 82% 30.03 in 10.0 mi North 9.2 mph - N/A   Overcast
9:35 PM 51.8 °F 46.4 °F 82% 30.04 in 10.0 mi North 12.7 mph - N/A   Overcast
9:55 PM 51.8 °F 46.4 °F 82% 30.04 in 10.0 mi North 13.8 mph 18.4 mph N/A   Overcast
10:15 PM 51.8 °F 44.6 °F 76% 30.05 in 10.0 mi North 11.5 mph 19.6 mph N/A   Overcast
10:35 PM 51.8 °F 44.6 °F 76% 30.05 in 10.0 mi North 12.7 mph 19.6 mph N/A   Overcast
10:55 PM 50.0 °F 44.6 °F 82% 30.05 in 10.0 mi North 12.7 mph 18.4 mph N/A   Overcast
11:15 PM 48.2 °F 44.6 °F 87% 30.06 in 10.0 mi North 8.1 mph - N/A   Overcast
11:35 PM 48.2 °F 44.6 °F 87% 30.07 in 10.0 mi North 6.9 mph - N/A   Overcast
11:55 PM 48.2 °F 42.8 °F 82% 30.07 in 10.0 mi NNE 11.5 mph - N/A   Overcast